TimeCDT,TemperatureF,Dew PointF,Humidity,Sea Level PressureIn,VisibilityMPH,Wind Direction,Wind SpeedMPH,Gust SpeedMPH,PrecipitationIn,Events,Conditions,WindDirDegrees,DateUTC
12:13 AM,30.2,26.6,86,29.84,10.0,WNW,9.2,-,N/A,,Overcast,290,2012-10-10 05:13:00
12:33 AM,30.2,26.6,86,29.84,10.0,WNW,6.9,-,N/A,,Mostly Cloudy,290,2012-10-10 05:33:00
12:53 AM,30.2,26.6,86,29.84,10.0,WNW,8.1,-,N/A,,Scattered Clouds,290,2012-10-10 05:53:00
1:13 AM,30.2,26.6,86,29.85,10.0,WNW,9.2,-,N/A,,Clear,300,2012-10-10 06:13:00
1:33 AM,30.2,26.6,86,29.85,10.0,WNW,6.9,-,N/A,,Clear,290,2012-10-10 06:33:00
1:53 AM,28.4,26.6,93,29.85,10.0,WNW,6.9,-,N/A,,Clear,290,2012-10-10 06:53:00
2:13 AM,28.4,26.6,93,29.86,10.0,WNW,6.9,-,N/A,,Clear,300,2012-10-10 07:13:00
2:33 AM,28.4,26.6,93,29.86,10.0,West,4.6,-,N/A,,Clear,270,2012-10-10 07:33:00
2:53 AM,28.4,26.6,93,29.86,10.0,West,6.9,-,N/A,,Clear,280,2012-10-10 07:53:00
3:13 AM,28.4,24.8,86,29.86,10.0,WNW,4.6,-,N/A,,Clear,290,2012-10-10 08:13:00
3:34 AM,28.4,24.8,86,29.86,10.0,WNW,5.8,-,N/A,,Clear,290,2012-10-10 08:34:00
3:53 AM,28.4,24.8,86,29.86,10.0,West,3.5,-,N/A,,Clear,280,2012-10-10 08:53:00
4:13 AM,26.6,23.0,86,29.87,10.0,West,3.5,-,N/A,,Clear,280,2012-10-10 09:13:00
4:33 AM,26.6,23.0,86,29.88,10.0,Calm,Calm,-,N/A,,Clear,0,2012-10-10 09:33:00
4:53 AM,24.8,21.2,86,29.88,10.0,Calm,Calm,-,N/A,,Scattered Clouds,0,2012-10-10 09:53:00
5:13 AM,28.4,24.8,86,29.89,10.0,WNW,5.8,-,N/A,,Mostly Cloudy,290,2012-10-10 10:13:00
5:34 AM,28.4,24.8,86,29.89,10.0,WNW,5.8,-,N/A,,Scattered Clouds,290,2012-10-10 10:34:00
5:53 AM,28.4,24.8,86,29.89,10.0,WNW,5.8,-,N/A,,Clear,290,2012-10-10 10:53:00
6:13 AM,28.4,23.0,80,29.89,10.0,WNW,4.6,-,N/A,,Clear,290,2012-10-10 11:13:00
6:33 AM,26.6,23.0,86,29.90,10.0,West,4.6,-,N/A,,Clear,280,2012-10-10 11:33:00
6:53 AM,26.6,23.0,86,29.90,10.0,West,4.6,-,N/A,,Clear,280,2012-10-10 11:53:00
7:33 AM,24.8,21.2,86,29.91,10.0,Calm,Calm,-,N/A,,Scattered Clouds,0,2012-10-10 12:33:00
7:53 AM,26.6,24.8,93,29.91,10.0,Calm,Calm,-,N/A,,Mostly Cloudy,0,2012-10-10 12:53:00
8:13 AM,26.6,24.8,93,29.91,10.0,Calm,Calm,-,N/A,,Overcast,0,2012-10-10 13:13:00
8:33 AM,28.4,26.6,93,29.91,10.0,Calm,Calm,-,N/A,,Overcast,0,2012-10-10 13:33:00
8:54 AM,28.4,26.6,93,29.91,10.0,Calm,Calm,-,N/A,,Mostly Cloudy,0,2012-10-10 13:54:00
9:13 AM,30.2,26.6,86,29.92,10.0,Calm,Calm,-,N/A,,Mostly Cloudy,0,2012-10-10 14:13:00
9:34 AM,30.2,28.4,93,29.92,10.0,WSW,3.5,-,N/A,,Scattered Clouds,240,2012-10-10 14:34:00
9:53 AM,30.2,28.4,93,29.92,10.0,West,4.6,-,N/A,,Scattered Clouds,270,2012-10-10 14:53:00
10:13 AM,30.2,28.4,93,29.93,7.0,West,4.6,-,N/A,Snow,Snow,260,2012-10-10 15:13:00
10:33 AM,32.0,28.4,87,29.93,10.0,SW,4.6,-,N/A,,Scattered Clouds,230,2012-10-10 15:33:00
10:53 AM,35.6,30.2,81,29.93,10.0,WSW,5.8,-,N/A,,Scattered Clouds,240,2012-10-10 15:53:00
11:13 AM,35.6,28.4,75,29.93,10.0,West,8.1,-,N/A,,Mostly Cloudy,270,2012-10-10 16:13:00
11:33 AM,37.4,28.4,70,29.93,10.0,West,5.8,-,N/A,,Scattered Clouds,270,2012-10-10 16:33:00
11:53 AM,39.2,28.4,65,29.93,10.0,West,8.1,-,N/A,,Scattered Clouds,260,2012-10-10 16:53:00
12:13 PM,37.4,26.6,65,29.92,10.0,West,9.2,-,N/A,,Scattered Clouds,270,2012-10-10 17:13:00
12:33 PM,37.4,24.8,60,29.92,10.0,WNW,5.8,-,N/A,,Mostly Cloudy,300,2012-10-10 17:33:00
12:53 PM,37.4,26.6,65,29.92,10.0,WNW,6.9,-,N/A,,Overcast,300,2012-10-10 17:53:00
1:13 PM,37.4,24.8,60,29.92,10.0,NW,9.2,-,N/A,,Mostly Cloudy,310,2012-10-10 18:13:00
1:33 PM,39.2,24.8,56,29.91,10.0,WNW,6.9,-,N/A,,Mostly Cloudy,290,2012-10-10 18:33:00
1:53 PM,41.0,24.8,53,29.90,10.0,West,6.9,-,N/A,,Scattered Clouds,280,2012-10-10 18:53:00
2:13 PM,41.0,21.2,45,29.90,10.0,West,10.4,-,N/A,,Scattered Clouds,280,2012-10-10 19:13:00
2:33 PM,41.0,21.2,45,29.90,10.0,West,8.1,16.1,N/A,,Scattered Clouds,270,2012-10-10 19:33:00
2:53 PM,41.0,23.0,49,29.90,10.0,West,5.8,-,N/A,,Scattered Clouds,280,2012-10-10 19:53:00
3:13 PM,41.0,23.0,49,29.89,10.0,West,5.8,-,N/A,,Scattered Clouds,270,2012-10-10 20:13:00
3:33 PM,41.0,23.0,49,29.90,10.0,West,5.8,-,N/A,,Mostly Cloudy,260,2012-10-10 20:33:00
3:54 PM,42.8,23.0,46,29.89,10.0,SW,4.6,-,N/A,,Mostly Cloudy,230,2012-10-10 20:54:00
4:13 PM,39.2,23.0,52,29.89,10.0,WSW,6.9,-,N/A,,Mostly Cloudy,250,2012-10-10 21:13:00
4:33 PM,41.0,24.8,53,29.88,10.0,SW,4.6,-,N/A,,Overcast,230,2012-10-10 21:33:00
4:53 PM,41.0,24.8,53,29.87,10.0,Calm,Calm,-,N/A,,Mostly Cloudy,0,2012-10-10 21:53:00
5:13 PM,41.0,24.8,53,29.87,10.0,Calm,Calm,-,N/A,,Scattered Clouds,0,2012-10-10 22:13:00
5:33 PM,39.2,24.8,56,29.87,10.0,WSW,3.5,-,N/A,,Mostly Cloudy,250,2012-10-10 22:33:00
5:53 PM,39.2,26.6,61,29.87,10.0,WSW,5.8,-,N/A,,Drizzle,240,2012-10-10 22:53:00
6:13 PM,35.6,30.2,81,29.87,10.0,Calm,Calm,-,N/A,,Light Drizzle,0,2012-10-10 23:13:00
6:33 PM,35.6,30.2,81,29.88,10.0,Calm,Calm,-,N/A,,Overcast,0,2012-10-10 23:33:00
6:53 PM,35.6,30.2,81,29.87,10.0,Calm,Calm,-,N/A,,Overcast,0,2012-10-10 23:53:00
7:13 PM,37.4,28.4,70,29.88,10.0,West,6.9,-,N/A,,Overcast,260,2012-10-11 00:13:00
7:33 PM,37.4,30.2,75,29.89,10.0,WSW,8.1,16.1,N/A,,Mostly Cloudy,240,2012-10-11 00:33:00
7:53 PM,35.6,30.2,81,29.89,10.0,West,3.5,-,N/A,,Drizzle,260,2012-10-11 00:53:00
8:13 PM,35.6,30.2,81,29.89,7.0,West,3.5,-,N/A,Rain,Rain,270,2012-10-11 01:13:00
8:33 PM,33.8,30.2,87,29.89,7.0,West,4.6,-,N/A,,Drizzle,260,2012-10-11 01:33:00
8:53 PM,33.8,30.2,87,29.89,7.0,WSW,3.5,-,N/A,Rain,Light Rain,240,2012-10-11 01:53:00
9:13 PM,33.8,30.2,87,29.89,5.0,WSW,3.5,-,0.01,Rain,Light Rain,250,2012-10-11 02:13:00
9:33 PM,33.8,30.2,87,29.89,7.0,Calm,Calm,-,0.01,Rain,Light Rain,0,2012-10-11 02:33:00
9:53 PM,32.0,30.2,93,29.89,4.0,Calm,Calm,-,0.02,Rain,Light Rain,0,2012-10-11 02:53:00
10:13 PM,32.0,30.2,93,29.89,5.0,Calm,Calm,-,N/A,Rain,Light Rain,0,2012-10-11 03:13:00
10:33 PM,32.0,30.2,93,29.88,4.0,Calm,Calm,-,N/A,,Clear,0,2012-10-11 03:33:00
10:53 PM,32.0,30.2,93,29.89,5.0,Calm,Calm,-,N/A,Snow,Light Snow,0,2012-10-11 03:53:00
11:13 PM,32.0,30.2,93,29.88,7.0,Calm,Calm,-,N/A,,Overcast,0,2012-10-11 04:13:00
11:34 PM,32.0,30.2,93,29.88,7.0,Calm,Calm,-,N/A,Snow,Light Snow,0,2012-10-11 04:34:00
11:54 PM,32.0,30.2,93,29.88,4.0,Calm,Calm,-,N/A,Snow,Light Snow,0,2012-10-11 04:54:00